{"data":{"norad_id":63448,"intl_designator":"2025-069R","name":"STARLINK-33797","alt_names":[],"object_type":"PAYLOAD","status":"ACTIVE","operator":null,"country":"US","launch_date":"2025-04-04","launch_site_code":"AFWTR","launch_vehicle":null,"mission":null,"orbit_class":"UNKNOWN","rcs_meters":null,"size_class":null,"mass_kg":null,"dimensions":null,"purposes":["comms"],"wikipedia_slug":null,"has_3d_model":false,"image_url":null,"decayed_at":null,"tle_current":{"epoch":"2026-09-20T22:00:03.000096Z","epoch_age_seconds":119652,"freshness":"FRESH","line1":"1 63448U 25069R   26263.91670139  .00023172  00000+0  69526-3 0  9997","line2":"2 63448  53.1598 308.0000 0001196  80.7205 248.0096 15.34380588  5883","mean_motion":15.34380588,"eccentricity":0.0001196,"inclination_deg":53.1598,"raan_deg":308,"arg_perigee_deg":80.7205,"mean_anomaly_deg":248.0096,"bstar":0.00069526,"rev_number":588,"period_min":93.848945383034,"perigee_km":461.94276597697,"apogee_km":463.57910876359,"semimajor_km":6840.8979373703,"source":"CELESTRAK","updated_at":"2026-09-21T09:00:35.004395Z"}}}